Time,TemperatureF,DewpointF,PressureIn,WindDirection,WindDirectionDegrees,WindSpeedMPH,WindSpeedGustMPH,Humidity,HourlyPrecipIn,Conditions,Clouds,dailyrainin,SoftwareType,DateUTC
2013-02-09 00:00:00,61.0,57.7,30.00,North,358,5.0,5.0,89,0.00,,,0.00,Wunderground v.1.15,2013-02-09 05:00:00,
2013-02-09 00:05:00,61.0,57.7,30.00,North,0,5.0,8.0,89,0.00,,,0.00,Wunderground v.1.15,2013-02-09 05:05:00,
2013-02-09 00:15:00,61.2,58.2,30.00,North,0,5.0,9.0,90,0.00,,,0.00,Wunderground v.1.15,2013-02-09 05:15:00,
2013-02-09 00:20:00,61.2,58.2,30.00,North,352,4.0,4.0,90,0.00,,,0.00,Wunderground v.1.15,2013-02-09 05:20:00,
2013-02-09 00:30:00,61.3,58.3,30.00,North,358,4.0,4.0,90,0.00,,,0.00,Wunderground v.1.15,2013-02-09 05:30:00,
2013-02-09 00:40:00,61.2,58.2,30.00,North,7,1.0,1.0,90,0.00,,,0.00,Wunderground v.1.15,2013-02-09 05:40:00,
2013-02-09 00:45:00,61.0,58.0,30.00,North,7,0.0,1.0,90,0.00,,,0.00,Wunderground v.1.15,2013-02-09 05:45:00,
2013-02-09 00:55:00,60.9,57.9,30.00,North,7,0.0,0.0,90,0.00,,,0.00,Wunderground v.1.15,2013-02-09 05:55:00,
2013-02-09 01:00:00,60.7,57.7,30.00,North,7,0.0,0.0,90,0.00,,,0.00,Wunderground v.1.15,2013-02-09 06:00:00,
2013-02-09 01:05:00,60.5,57.6,30.00,North,7,0.0,15.0,90,0.00,,,0.00,Wunderground v.1.15,2013-02-09 06:05:00,
2013-02-09 01:15:00,60.4,57.5,30.00,North,7,0.0,15.0,90,0.00,,,0.00,Wunderground v.1.15,2013-02-09 06:15:00,
2013-02-09 01:25:00,60.1,57.2,30.00,North,7,0.0,15.0,90,0.00,,,0.00,Wunderground v.1.15,2013-02-09 06:25:00,
2013-02-09 01:30:00,59.9,57.3,30.00,North,7,0.0,15.0,91,0.00,,,0.00,Wunderground v.1.15,2013-02-09 06:30:00,
2013-02-09 01:35:00,59.9,57.3,30.00,North,7,0.0,15.0,91,0.00,,,0.00,Wunderground v.1.15,2013-02-09 06:35:00,
2013-02-09 01:45:00,59.6,57.0,29.99,North,7,0.0,15.0,91,0.00,,,0.00,Wunderground v.1.15,2013-02-09 06:45:00,
2013-02-09 01:50:00,59.3,56.7,29.99,North,7,0.0,15.0,91,0.00,,,0.00,Wunderground v.1.15,2013-02-09 06:50:00,
2013-02-09 02:00:00,59.0,56.4,29.99,North,7,0.0,15.0,91,0.00,,,0.00,Wunderground v.1.15,2013-02-09 07:00:00,
2013-02-09 02:05:00,58.4,55.8,29.99,North,7,0.0,15.0,91,0.00,,,0.00,Wunderground v.1.15,2013-02-09 07:05:00,
2013-02-09 02:10:00,58.3,56.0,29.99,North,7,0.0,15.0,92,0.00,,,0.00,Wunderground v.1.15,2013-02-09 07:10:00,
2013-02-09 02:15:00,58.3,56.0,29.99,North,7,0.0,15.0,92,0.00,,,0.00,Wunderground v.1.15,2013-02-09 07:15:00,
2013-02-09 02:25:00,58.1,55.8,29.99,North,9,0.0,15.0,92,0.00,,,0.00,Wunderground v.1.15,2013-02-09 07:25:00,
2013-02-09 02:35:00,58.1,55.8,29.99,North,8,0.0,15.0,92,0.00,,,0.00,Wunderground v.1.15,2013-02-09 07:35:00,
2013-02-09 02:40:00,58.1,56.1,29.99,NNE,12,0.0,15.0,93,0.00,,,0.00,Wunderground v.1.15,2013-02-09 07:40:00,
2013-02-09 02:50:00,58.1,56.1,29.99,NNE,13,0.0,15.0,93,0.00,,,0.00,Wunderground v.1.15,2013-02-09 07:50:00,
2013-02-09 02:55:00,58.1,56.1,29.99,NNE,22,0.0,15.0,93,0.00,,,0.00,Wunderground v.1.15,2013-02-09 07:55:00,
2013-02-09 03:05:00,58.0,56.0,29.99,NNE,22,0.0,15.0,93,0.00,,,0.00,Wunderground v.1.15,2013-02-09 08:05:00,
2013-02-09 03:15:00,58.0,56.3,29.99,NNE,14,1.0,4.0,94,0.00,,,0.00,Wunderground v.1.15,2013-02-09 08:15:00,
2013-02-09 03:20:00,57.8,56.1,29.99,NNE,17,1.0,2.0,94,0.00,,,0.00,Wunderground v.1.15,2013-02-09 08:20:00,
2013-02-09 03:30:00,57.6,55.9,30.00,NNE,16,0.0,0.0,94,0.00,,,0.00,Wunderground v.1.15,2013-02-09 08:30:00,
2013-02-09 03:35:00,57.5,55.8,30.00,NNE,16,0.0,0.0,94,0.00,,,0.00,Wunderground v.1.15,2013-02-09 08:35:00,
2013-02-09 03:45:00,57.3,55.6,30.00,NNE,23,0.0,2.0,94,0.00,,,0.00,Wunderground v.1.15,2013-02-09 08:45:00,
2013-02-09 03:50:00,57.3,55.6,30.00,NNE,13,0.0,0.0,94,0.00,,,0.00,Wunderground v.1.15,2013-02-09 08:50:00,
2013-02-09 04:00:00,57.2,55.5,30.00,NE,35,0.0,0.0,94,0.00,,,0.00,Wunderground v.1.15,2013-02-09 09:00:00,
2013-02-09 04:05:00,57.0,55.3,30.00,North,6,0.0,3.0,94,0.00,,,0.00,Wunderground v.1.15,2013-02-09 09:05:00,
2013-02-09 04:15:00,57.0,55.3,30.00,NNE,19,1.0,4.0,94,0.00,,,0.00,Wunderground v.1.15,2013-02-09 09:15:00,
2013-02-09 04:20:00,57.0,55.6,30.00,North,8,1.0,1.0,95,0.00,,,0.00,Wunderground v.1.15,2013-02-09 09:20:00,
2013-02-09 04:30:00,56.9,55.5,30.01,NNE,19,1.0,1.0,95,0.00,,,0.00,Wunderground v.1.15,2013-02-09 09:30:00,
2013-02-09 04:35:00,56.9,55.5,30.01,NNE,27,1.0,7.0,95,0.00,,,0.00,Wunderground v.1.15,2013-02-09 09:35:00,
2013-02-09 04:45:00,56.9,55.5,30.02,North,0,2.0,5.0,95,0.00,,,0.00,Wunderground v.1.15,2013-02-09 09:45:00,
2013-02-09 04:50:00,56.9,55.5,30.02,North,2,2.0,2.0,95,0.00,,,0.00,Wunderground v.1.15,2013-02-09 09:50:00,
2013-02-09 05:00:00,56.9,55.5,30.02,North,11,1.0,1.0,95,0.00,,,0.00,Wunderground v.1.15,2013-02-09 10:00:00,
2013-02-09 05:05:00,56.9,55.5,30.02,North,8,2.0,4.0,95,0.00,,,0.00,Wunderground v.1.15,2013-02-09 10:05:00,
2013-02-09 05:15:00,56.9,55.5,30.03,NNE,12,5.0,5.0,95,0.00,,,0.00,Wunderground v.1.15,2013-02-09 10:15:00,
2013-02-09 05:20:00,56.9,55.5,30.03,NNE,16,4.0,4.0,95,0.00,,,0.00,Wunderground v.1.15,2013-02-09 10:20:00,
2013-02-09 05:30:00,56.7,55.3,30.03,NNE,25,2.0,7.0,95,0.00,,,0.00,Wunderground v.1.15,2013-02-09 10:30:00,
2013-02-09 05:35:00,56.7,55.3,30.03,NNE,18,3.0,7.0,95,0.00,,,0.00,Wunderground v.1.15,2013-02-09 10:35:00,
2013-02-09 05:45:00,56.6,55.2,30.03,North,6,5.0,9.0,95,0.00,,,0.00,Wunderground v.1.15,2013-02-09 10:45:00,
2013-02-09 05:50:00,56.6,54.9,30.03,NNE,23,5.0,6.0,94,0.00,,,0.00,Wunderground v.1.15,2013-02-09 10:50:00,
2013-02-09 06:00:00,56.6,54.9,30.04,NE,50,4.0,4.0,94,0.00,,,0.00,Wunderground v.1.15,2013-02-09 11:00:00,
2013-02-09 06:05:00,56.5,54.8,30.04,NNE,20,5.0,5.0,94,0.00,,,0.00,Wunderground v.1.15,2013-02-09 11:05:00,
2013-02-09 06:15:00,56.5,54.8,30.04,NNE,27,5.0,13.0,94,0.00,,,0.00,Wunderground v.1.15,2013-02-09 11:15:00,
2013-02-09 06:20:00,56.5,54.5,30.04,NNE,26,7.0,7.0,93,0.00,,,0.00,Wunderground v.1.15,2013-02-09 11:20:00,
2013-02-09 06:30:00,56.6,54.6,30.05,North,6,6.0,6.0,93,0.00,,,0.00,Wunderground v.1.15,2013-02-09 11:30:00,
2013-02-09 06:40:00,56.5,54.2,30.05,NNE,14,6.0,11.0,92,0.00,,,0.00,Wunderground v.1.15,2013-02-09 11:40:00,
2013-02-09 06:45:00,56.5,54.2,30.05,NNE,33,6.0,12.0,92,0.00,,,0.00,Wunderground v.1.15,2013-02-09 11:45:00,
2013-02-09 06:55:00,56.5,54.2,30.05,North,4,7.0,7.0,92,0.00,,,0.00,Wunderground v.1.15,2013-02-09 11:55:00,
2013-02-09 07:00:00,56.3,53.7,30.06,NNE,31,5.0,5.0,91,0.00,,,0.00,Wunderground v.1.15,2013-02-09 12:00:00,
2013-02-09 07:10:00,56.3,53.7,30.06,NNE,20,3.0,15.0,91,0.00,,,0.00,Wunderground v.1.15,2013-02-09 12:10:00,
2013-02-09 07:20:00,56.2,53.6,30.07,North,8,3.0,3.0,91,0.00,,,0.00,Wunderground v.1.15,2013-02-09 12:20:00,
2013-02-09 07:25:00,56.0,53.4,30.07,NNE,16,3.0,4.0,91,0.00,,,0.00,Wunderground v.1.15,2013-02-09 12:25:00,
2013-02-09 07:35:00,56.2,53.6,30.07,NNE,13,4.0,15.0,91,0.00,,,0.00,Wunderground v.1.15,2013-02-09 12:35:00,
2013-02-09 07:40:00,56.3,53.7,30.07,NNE,16,4.0,4.0,91,0.00,,,0.00,Wunderground v.1.15,2013-02-09 12:40:00,
2013-02-09 07:50:00,56.5,53.9,30.08,NNE,15,3.0,15.0,91,0.00,,,0.00,Wunderground v.1.15,2013-02-09 12:50:00,
2013-02-09 08:00:00,56.9,54.0,30.08,NE,38,6.0,6.0,90,0.00,,,0.00,Wunderground v.1.15,2013-02-09 13:00:00,
2013-02-09 08:10:00,57.0,53.8,30.08,NE,52,6.0,6.0,89,0.00,,,0.00,Wunderground v.1.15,2013-02-09 13:10:00,
2013-02-09 08:15:00,57.3,54.1,30.08,NNE,24,7.0,7.0,89,0.00,,,0.00,Wunderground v.1.15,2013-02-09 13:15:00,
2013-02-09 08:25:00,57.5,53.7,30.08,North,11,6.0,6.0,87,0.00,,,0.00,Wunderground v.1.15,2013-02-09 13:25:00,
2013-02-09 08:30:00,57.6,53.8,30.08,NNE,24,8.0,8.0,87,0.00,,,0.00,Wunderground v.1.15,2013-02-09 13:30:00,
2013-02-09 08:40:00,58.3,54.1,30.08,NNE,30,8.0,8.0,86,0.00,,,0.00,Wunderground v.1.15,2013-02-09 13:40:00,
2013-02-09 08:50:00,58.7,53.9,30.09,NE,43,6.0,20.0,84,0.00,,,0.00,Wunderground v.1.15,2013-02-09 13:50:00,
2013-02-09 08:55:00,58.9,53.7,30.09,NE,36,11.0,20.0,83,0.00,,,0.00,Wunderground v.1.15,2013-02-09 13:55:00,
2013-02-09 09:05:00,59.3,53.5,30.09,NE,47,10.0,14.0,81,0.00,,,0.00,Wunderground v.1.15,2013-02-09 14:05:00,
2013-02-09 09:15:00,60.1,53.9,30.09,East,82,8.0,12.0,80,0.00,,,0.00,Wunderground v.1.15,2013-02-09 14:15:00,
2013-02-09 09:20:00,60.9,54.7,30.09,NNE,30,4.0,6.0,80,0.00,,,0.00,Wunderground v.1.15,2013-02-09 14:20:00,
2013-02-09 09:30:00,61.3,54.0,30.11,NNE,25,6.0,11.0,77,0.00,,,0.00,Wunderground v.1.15,2013-02-09 14:30:00,
2013-02-09 09:40:00,62.0,54.3,30.11,North,1,7.0,13.0,76,0.00,,,0.00,Wunderground v.1.15,2013-02-09 14:40:00,
2013-02-09 09:45:00,62.4,54.0,30.11,NNE,25,5.0,18.0,74,0.00,,,0.00,Wunderground v.1.15,2013-02-09 14:45:00,
2013-02-09 09:55:00,62.7,53.5,30.11,NE,43,10.0,17.0,72,0.00,,,0.00,Wunderground v.1.15,2013-02-09 14:55:00,
2013-02-09 10:05:00,63.9,54.3,30.11,ENE,63,7.0,26.0,71,0.00,,,0.00,Wunderground v.1.15,2013-02-09 15:05:00,
2013-02-09 10:10:00,63.9,53.9,30.11,North,0,9.0,26.0,70,0.00,,,0.00,Wunderground v.1.15,2013-02-09 15:10:00,
2013-02-09 10:20:00,64.3,53.9,30.11,ENE,64,11.0,11.0,69,0.00,,,0.00,Wunderground v.1.15,2013-02-09 15:20:00,
2013-02-09 10:25:00,64.5,53.7,30.11,East,92,10.0,26.0,68,0.00,,,0.00,Wunderground v.1.15,2013-02-09 15:25:00,
2013-02-09 10:35:00,65.0,53.4,30.11,NNE,28,12.0,26.0,66,0.00,,,0.00,Wunderground v.1.15,2013-02-09 15:35:00,
2013-02-09 10:45:00,65.6,53.5,30.11,East,94,9.0,26.0,65,0.00,,,0.00,Wunderground v.1.15,2013-02-09 15:45:00,
2013-02-09 10:50:00,66.3,54.2,30.11,NE,41,8.0,26.0,65,0.00,,,0.00,Wunderground v.1.15,2013-02-09 15:50:00,
2013-02-09 11:00:00,66.9,53.9,30.10,NE,48,11.0,11.0,63,0.00,,,0.00,Wunderground v.1.15,2013-02-09 16:00:00,
2013-02-09 11:10:00,68.1,54.1,30.10,NNE,14,4.0,26.0,61,0.00,,,0.00,Wunderground v.1.15,2013-02-09 16:10:00,
2013-02-09 11:15:00,68.4,54.0,30.10,NE,43,5.0,26.0,60,0.00,,,0.00,Wunderground v.1.15,2013-02-09 16:15:00,
2013-02-09 11:25:00,68.9,54.0,30.10,North,11,7.0,26.0,59,0.00,,,0.00,Wunderground v.1.15,2013-02-09 16:25:00,
2013-02-09 11:30:00,69.3,54.4,30.09,North,358,5.0,5.0,59,0.00,,,0.00,Wunderground v.1.15,2013-02-09 16:30:00,
2013-02-09 11:40:00,70.1,53.7,30.09,ENE,65,6.0,26.0,56,0.00,,,0.00,Wunderground v.1.15,2013-02-09 16:40:00,
2013-02-09 11:50:00,69.8,53.9,30.09,NE,43,9.0,26.0,57,0.00,,,0.00,Wunderground v.1.15,2013-02-09 16:50:00,
2013-02-09 11:55:00,69.6,54.2,30.09,NNE,25,9.0,26.0,58,0.00,,,0.00,Wunderground v.1.15,2013-02-09 16:55:00,
2013-02-09 12:05:00,70.4,54.0,30.09,NE,36,8.0,26.0,56,0.00,,,0.00,Wunderground v.1.15,2013-02-09 17:05:00,
2013-02-09 12:15:00,71.3,53.8,30.08,NNE,12,7.0,11.0,54,0.00,,,0.00,Wunderground v.1.15,2013-02-09 17:15:00,
2013-02-09 12:20:00,71.5,53.5,30.08,NE,40,8.0,16.0,53,0.00,,,0.00,Wunderground v.1.15,2013-02-09 17:20:00,
2013-02-09 12:30:00,72.0,53.4,30.08,NE,47,6.0,6.0,52,0.00,,,0.00,Wunderground v.1.15,2013-02-09 17:30:00,
2013-02-09 12:40:00,72.0,52.3,30.08,ESE,108,6.0,6.0,50,0.00,,,0.00,Wunderground v.1.15,2013-02-09 17:40:00,
2013-02-09 12:45:00,72.0,53.4,30.07,NE,36,7.0,7.0,52,0.00,,,0.00,Wunderground v.1.15,2013-02-09 17:45:00,
2013-02-09 12:55:00,72.7,52.4,30.07,NE,41,7.0,13.0,49,0.00,,,0.00,Wunderground v.1.15,2013-02-09 17:55:00,
2013-02-09 13:00:00,72.5,50.5,30.07,ENE,72,9.0,9.0,46,0.00,,,0.00,Wunderground v.1.15,2013-02-09 18:00:00,
2013-02-09 13:10:00,73.3,52.4,30.07,ENE,69,8.0,8.0,48,0.00,,,0.00,Wunderground v.1.15,2013-02-09 18:10:00,
2013-02-09 13:20:00,73.9,53.5,30.06,NW,323,7.0,25.0,49,0.00,,,0.00,Wunderground v.1.15,2013-02-09 18:20:00,
2013-02-09 13:30:00,73.5,53.2,30.05,NE,52,7.0,7.0,49,0.00,,,0.00,Wunderground v.1.15,2013-02-09 18:30:00,
2013-02-09 13:35:00,74.2,54.4,30.05,North,4,5.0,13.0,50,0.00,,,0.00,Wunderground v.1.15,2013-02-09 18:35:00,
2013-02-09 13:45:00,75.1,53.5,30.05,ENE,67,4.0,10.0,47,0.00,,,0.00,Wunderground v.1.15,2013-02-09 18:45:00,
2013-02-09 13:55:00,75.6,53.4,30.05,North,358,3.0,8.0,46,0.00,,,0.00,Wunderground v.1.15,2013-02-09 18:55:00,
2013-02-09 14:00:00,74.6,55.8,30.05,NNW,338,7.0,25.0,52,0.00,,,0.00,Wunderground v.1.15,2013-02-09 19:00:00,
2013-02-09 14:10:00,72.8,55.2,30.05,NNW,347,14.0,14.0,54,0.00,,,0.00,Wunderground v.1.15,2013-02-09 19:10:00,
2013-02-09 14:20:00,72.8,56.2,30.05,WNW,300,11.0,25.0,56,0.00,,,0.00,Wunderground v.1.15,2013-02-09 19:20:00,
2013-02-09 14:25:00,72.7,55.6,30.05,NW,317,15.0,25.0,55,0.00,,,0.00,Wunderground v.1.15,2013-02-09 19:25:00,
2013-02-09 14:35:00,73.5,55.3,30.04,NNW,334,12.0,25.0,53,0.00,,,0.00,Wunderground v.1.15,2013-02-09 19:35:00,
2013-02-09 14:45:00,73.2,55.6,30.03,NNW,345,15.0,25.0,54,0.00,,,0.00,Wunderground v.1.15,2013-02-09 19:45:00,
2013-02-09 14:55:00,73.0,55.4,30.03,NW,322,14.0,25.0,54,0.00,,,0.00,Wunderground v.1.15,2013-02-09 19:55:00,
2013-02-09 15:00:00,73.0,54.9,30.03,NW,317,17.0,17.0,53,0.00,,,0.00,Wunderground v.1.15,2013-02-09 20:00:00,
2013-02-09 15:10:00,73.5,54.8,30.03,North,353,13.0,13.0,52,0.00,,,0.00,Wunderground v.1.15,2013-02-09 20:10:00,
2013-02-09 15:20:00,73.5,55.8,30.03,NW,311,12.0,17.0,54,0.00,,,0.00,Wunderground v.1.15,2013-02-09 20:20:00,
2013-02-09 15:30:00,74.0,55.3,30.03,North,349,12.0,12.0,52,0.00,,,0.00,Wunderground v.1.15,2013-02-09 20:30:00,
2013-02-09 15:35:00,74.4,54.5,30.03,North,357,11.0,18.0,50,0.00,,,0.00,Wunderground v.1.15,2013-02-09 20:35:00,
2013-02-09 15:45:00,76.0,54.3,30.03,North,353,4.0,9.0,47,0.00,,,0.00,Wunderground v.1.15,2013-02-09 20:45:00,
2013-02-09 15:55:00,75.3,54.3,30.03,WNW,297,7.0,11.0,48,0.00,,,0.00,Wunderground v.1.15,2013-02-09 20:55:00,
2013-02-09 16:05:00,75.8,53.5,30.02,NNW,327,6.0,24.0,46,0.00,,,0.00,Wunderground v.1.15,2013-02-09 21:05:00,
2013-02-09 16:10:00,76.1,51.3,30.02,NE,48,5.0,5.0,42,0.00,,,0.00,Wunderground v.1.15,2013-02-09 21:10:00,
2013-02-09 16:20:00,76.1,53.8,30.02,North,355,6.0,24.0,46,0.00,,,0.00,Wunderground v.1.15,2013-02-09 21:20:00,
2013-02-09 16:25:00,75.3,54.3,30.02,NNW,328,11.0,24.0,48,0.00,,,0.00,Wunderground v.1.15,2013-02-09 21:25:00,
2013-02-09 16:35:00,75.3,54.3,30.02,North,356,7.0,24.0,48,0.00,,,0.00,Wunderground v.1.15,2013-02-09 21:35:00,
2013-02-09 16:45:00,75.8,55.3,30.02,North,0,4.0,24.0,49,0.00,,,0.00,Wunderground v.1.15,2013-02-09 21:45:00,
2013-02-09 16:50:00,76.3,52.8,30.02,NE,38,3.0,3.0,44,0.00,,,0.00,Wunderground v.1.15,2013-02-09 21:50:00,
2013-02-09 17:00:00,76.7,54.4,30.02,NE,41,2.0,2.0,46,0.00,,,0.00,Wunderground v.1.15,2013-02-09 22:00:00,
2013-02-09 17:05:00,76.5,52.3,30.02,NNE,25,4.0,20.0,43,0.00,,,0.00,Wunderground v.1.15,2013-02-09 22:05:00,
2013-02-09 17:15:00,75.8,52.3,30.03,NE,43,9.0,24.0,44,0.00,,,0.00,Wunderground v.1.15,2013-02-09 22:15:00,
2013-02-09 17:25:00,75.8,52.9,30.03,NE,52,6.0,24.0,45,0.00,,,0.00,Wunderground v.1.15,2013-02-09 22:25:00,
2013-02-09 17:30:00,75.6,52.8,30.03,NE,53,7.0,24.0,45,0.00,,,0.00,Wunderground v.1.15,2013-02-09 22:30:00,
2013-02-09 17:40:00,75.3,53.1,30.03,NNE,29,4.0,24.0,46,0.00,,,0.00,Wunderground v.1.15,2013-02-09 22:40:00,
2013-02-09 17:50:00,74.9,52.7,30.03,ENE,77,3.0,3.0,46,0.00,,,0.00,Wunderground v.1.15,2013-02-09 22:50:00,
2013-02-09 17:55:00,74.6,53.0,30.03,East,84,4.0,4.0,47,0.00,,,0.00,Wunderground v.1.15,2013-02-09 22:55:00,
2013-02-09 18:05:00,73.9,53.0,30.03,ENE,61,3.0,24.0,48,0.00,,,0.00,Wunderground v.1.15,2013-02-09 23:05:00,
2013-02-09 18:15:00,73.3,53.0,30.03,ENE,76,3.0,3.0,49,0.00,,,0.00,Wunderground v.1.15,2013-02-09 23:15:00,
2013-02-09 18:20:00,73.0,53.3,30.03,ENE,70,2.0,4.0,50,0.00,,,0.00,Wunderground v.1.15,2013-02-09 23:20:00,
2013-02-09 18:30:00,72.1,53.0,30.03,NE,46,2.0,2.0,51,0.00,,,0.00,Wunderground v.1.15,2013-02-09 23:30:00,
2013-02-09 18:40:00,71.6,53.0,30.03,NE,34,0.0,0.0,52,0.00,,,0.00,Wunderground v.1.15,2013-02-09 23:40:00,
2013-02-09 18:45:00,71.3,53.3,30.03,ENE,64,1.0,1.0,53,0.00,,,0.00,Wunderground v.1.15,2013-02-09 23:45:00,
2013-02-09 18:55:00,70.8,53.3,30.03,ENE,58,0.0,1.0,54,0.00,,,0.00,Wunderground v.1.15,2013-02-09 23:55:00,
2013-02-09 19:05:00,70.1,52.7,30.04,ENE,58,0.0,15.0,54,0.00,,,0.00,Wunderground v.1.15,2013-02-10 00:05:00,
2013-02-09 19:10:00,69.9,53.0,30.04,NE,51,0.0,15.0,55,0.00,,,0.00,Wunderground v.1.15,2013-02-10 00:10:00,
2013-02-09 19:20:00,69.4,53.0,30.04,ENE,60,0.0,15.0,56,0.00,,,0.00,Wunderground v.1.15,2013-02-10 00:20:00,
2013-02-09 19:30:00,68.9,53.0,30.05,ENE,65,0.0,15.0,57,0.00,,,0.00,Wunderground v.1.15,2013-02-10 00:30:00,
2013-02-09 19:35:00,68.8,52.9,30.05,ENE,72,0.0,15.0,57,0.00,,,0.00,Wunderground v.1.15,2013-02-10 00:35:00,
2013-02-09 19:45:00,68.4,53.0,30.05,ENE,61,0.0,15.0,58,0.00,,,0.00,Wunderground v.1.15,2013-02-10 00:45:00,
2013-02-09 19:55:00,68.1,53.2,30.05,ENE,70,0.0,15.0,59,0.00,,,0.00,Wunderground v.1.15,2013-02-10 00:55:00,
2013-02-09 20:00:00,67.9,53.5,30.05,ENE,72,0.0,15.0,60,0.00,,,0.00,Wunderground v.1.15,2013-02-10 01:00:00,
2013-02-09 20:10:00,67.8,53.9,30.05,NE,39,1.0,15.0,61,0.00,,,0.00,Wunderground v.1.15,2013-02-10 01:10:00,
2013-02-09 20:20:00,67.8,53.9,30.06,ENE,61,3.0,15.0,61,0.00,,,0.00,Wunderground v.1.15,2013-02-10 01:20:00,
2013-02-09 20:25:00,67.6,53.7,30.06,ENE,60,3.0,15.0,61,0.00,,,0.00,Wunderground v.1.15,2013-02-10 01:25:00,
2013-02-09 20:35:00,67.3,53.8,30.06,East,94,2.0,15.0,62,0.00,,,0.00,Wunderground v.1.15,2013-02-10 01:35:00,
2013-02-09 20:45:00,66.9,53.9,30.07,ENE,65,3.0,15.0,63,0.00,,,0.00,Wunderground v.1.15,2013-02-10 01:45:00,
2013-02-09 20:50:00,66.8,53.8,30.07,East,79,3.0,15.0,63,0.00,,,0.00,Wunderground v.1.15,2013-02-10 01:50:00,
2013-02-09 21:00:00,66.6,54.0,30.08,ENE,71,4.0,15.0,64,0.00,,,0.00,Wunderground v.1.15,2013-02-10 02:00:00,
2013-02-09 21:10:00,66.4,54.3,30.08,East,91,3.0,9.0,65,0.00,,,0.00,Wunderground v.1.15,2013-02-10 02:10:00,
2013-02-09 21:15:00,66.3,54.2,30.08,ESE,107,4.0,9.0,65,0.00,,,0.00,Wunderground v.1.15,2013-02-10 02:15:00,
2013-02-09 21:25:00,66.0,54.3,30.08,East,89,4.0,10.0,66,0.00,,,0.00,Wunderground v.1.15,2013-02-10 02:25:00,
2013-02-09 21:35:00,65.8,54.5,30.09,ENE,75,4.0,9.0,67,0.00,,,0.00,Wunderground v.1.15,2013-02-10 02:35:00,
2013-02-09 21:40:00,65.6,54.8,30.09,ENE,57,4.0,4.0,68,0.00,,,0.00,Wunderground v.1.15,2013-02-10 02:40:00,
2013-02-09 21:50:00,65.5,53.4,30.09,East,85,6.0,6.0,65,0.00,,,0.00,Wunderground v.1.15,2013-02-10 02:50:00,
2013-02-09 22:00:00,65.2,54.8,30.09,ESE,105,4.0,4.0,69,0.00,,,0.00,Wunderground v.1.15,2013-02-10 03:00:00,
2013-02-09 22:05:00,65.0,55.0,30.09,ENE,73,5.0,12.0,70,0.00,,,0.00,Wunderground v.1.15,2013-02-10 03:05:00,
2013-02-09 22:15:00,64.7,55.1,30.09,East,82,5.0,10.0,71,0.00,,,0.00,Wunderground v.1.15,2013-02-10 03:15:00,
2013-02-09 22:20:00,64.5,55.3,30.09,ENE,73,5.0,15.0,72,0.00,,,0.00,Wunderground v.1.15,2013-02-10 03:20:00,
2013-02-09 22:30:00,64.3,55.5,30.09,ENE,61,4.0,15.0,73,0.00,,,0.00,Wunderground v.1.15,2013-02-10 03:30:00,
2013-02-09 22:40:00,64.0,55.2,30.09,ENE,65,3.0,3.0,73,0.00,,,0.00,Wunderground v.1.15,2013-02-10 03:40:00,
2013-02-09 22:50:00,63.9,55.4,30.10,East,101,5.0,15.0,74,0.00,,,0.00,Wunderground v.1.15,2013-02-10 03:50:00,
2013-02-09 22:55:00,63.7,55.6,30.10,East,84,4.0,15.0,75,0.00,,,0.00,Wunderground v.1.15,2013-02-10 03:55:00,
2013-02-09 23:05:00,63.5,55.8,30.10,East,91,4.0,15.0,76,0.00,,,0.00,Wunderground v.1.15,2013-02-10 04:05:00,
2013-02-09 23:15:00,63.2,55.5,30.10,East,96,3.0,6.0,76,0.00,,,0.00,Wunderground v.1.15,2013-02-10 04:15:00,
2013-02-09 23:20:00,63.2,55.9,30.10,East,93,3.0,15.0,77,0.00,,,0.00,Wunderground v.1.15,2013-02-10 04:20:00,
2013-02-09 23:30:00,62.9,55.6,30.10,ENE,75,4.0,15.0,77,0.00,,,0.00,Wunderground v.1.15,2013-02-10 04:30:00,
2013-02-09 23:40:00,62.6,55.6,30.10,ENE,62,3.0,15.0,78,0.00,,,0.00,Wunderground v.1.15,2013-02-10 04:40:00,
2013-02-09 23:45:00,62.6,55.6,30.10,ENE,75,4.0,15.0,78,0.00,,,0.00,Wunderground v.1.15,2013-02-10 04:45:00,
2013-02-09 23:55:00,62.4,55.8,30.10,East,90,4.0,15.0,79,0.00,,,0.00,Wunderground v.1.15,2013-02-10 04:55:00,